RYR2122 LKPR-EBCI

Flight info

Callsign RYR2122
Flight time 1h 6m
Altitude 32000
Route BALTU DCT DONAD DCT RAPET Z93 KODUK DCT MARZA DCT TEKTU DCT TESGA DCT UMUPU T880 BATTY
Aircraft B738/M-SDE2E3FGHIRWXY/LB1

Departure

Time 2026-05-06 20:09
Airport Václav Havel Airport Prague (LKPR)

Arrival

Time 2026-05-06 21:16
Airport Brussels South Charleroi Airport (EBCI)
Time Latitude Longitude Altitude Speed Heading
2026-05-06 19:40 50.10946 14.26285 1172 ft 0 kts 124°
2026-05-06 19:53 50.10943 14.26292 1176 ft 3 kts 124°
2026-05-06 19:53 50.10913 14.26345 1173 ft 9 kts 155°
2026-05-06 19:53 50.10847 14.26301 1169 ft 12 kts 214°
2026-05-06 19:53 50.10767 14.26217 1172 ft 15 kts 214°
2026-05-06 19:54 50.10688 14.26133 1178 ft 12 kts 214°
2026-05-06 19:54 50.10622 14.26064 1175 ft 11 kts 212°
2026-05-06 19:54 50.10557 14.26000 1172 ft 11 kts 216°
2026-05-06 19:54 50.10533 14.25925 1172 ft 7 kts 273°
2026-05-06 19:55 50.10550 14.25860 1174 ft 5 kts 297°
2026-05-06 19:55 50.10558 14.25836 1173 ft 2 kts 297°
2026-05-06 19:55 50.10564 14.25817 1175 ft 1 kts 297°
2026-05-06 19:55 50.10568 14.25807 1175 ft 0 kts 297°
2026-05-06 19:56 50.10569 14.25803 1172 ft 1 kts 297°
2026-05-06 19:56 50.10572 14.25794 1175 ft 1 kts 300°
2026-05-06 19:56 50.10579 14.25779 1173 ft 2 kts 303°
2026-05-06 19:56 50.10590 14.25756 1171 ft 3 kts 308°
2026-05-06 19:57 50.10607 14.25718 1175 ft 6 kts 303°
2026-05-06 19:57 50.10636 14.25635 1173 ft 11 kts 290°
2026-05-06 19:57 50.10627 14.25555 1176 ft 6 kts 233°
2026-05-06 19:57 50.10613 14.25525 1172 ft 0 kts 237°
2026-05-06 20:01 50.10606 14.25504 1170 ft 5 kts 242°
2026-05-06 20:02 50.10595 14.25456 1169 ft 0 kts 256°
2026-05-06 20:02 50.10595 14.25455 1172 ft 1 kts 256°
2026-05-06 20:02 50.10590 14.25420 1170 ft 7 kts 259°
2026-05-06 20:02 50.10584 14.25364 1170 ft 0 kts 259°
2026-05-06 20:06 50.10579 14.25327 1169 ft 8 kts 259°
2026-05-06 20:07 50.10573 14.25282 1168 ft 0 kts 258°
2026-05-06 20:07 50.10572 14.25276 1167 ft 3 kts 258°
2026-05-06 20:07 50.10560 14.25200 1166 ft 11 kts 242°
2026-05-06 20:08 50.10486 14.25191 1165 ft 12 kts 138°
2026-05-06 20:08 50.10464 14.25234 1169 ft 0 kts 126°
2026-05-06 20:08 50.10464 14.25235 1169 ft 1 kts 126°
2026-05-06 20:08 50.10430 14.25308 1170 ft 30 kts 126°
2026-05-06 20:09 50.10159 14.25865 1187 ft 98 kts 127°
2026-05-06 20:09 50.09626 14.26972 1206 ft 156 kts 126°
2026-05-06 20:09 50.08939 14.28429 1677 ft 169 kts 126°
2026-05-06 20:09 50.08230 14.29886 2499 ft 168 kts 127°
2026-05-06 20:10 50.07510 14.31350 3214 ft 172 kts 126°
2026-05-06 20:10 50.06786 14.32837 3987 ft 173 kts 124°
2026-05-06 20:10 50.06040 14.34379 4601 ft 184 kts 125°
2026-05-06 20:10 50.05229 14.36066 4976 ft 208 kts 125°
2026-05-06 20:11 50.04328 14.37962 5205 ft 230 kts 128°
2026-05-06 20:11 50.03327 14.39931 5506 ft 244 kts 127°
2026-05-06 20:11 50.02238 14.42180 5808 ft 266 kts 126°
2026-05-06 20:11 50.01133 14.44523 6715 ft 265 kts 125°
2026-05-06 20:12 50.00367 14.47162 7444 ft 276 kts 102°
2026-05-06 20:12 50.00412 14.50179 8113 ft 287 kts 76°
2026-05-06 20:12 50.01388 14.52903 8802 ft 298 kts 45°
2026-05-06 20:12 50.03039 14.54928 9698 ft 300 kts 37°
2026-05-06 20:13 50.04724 14.56889 10258 ft 306 kts 38°
2026-05-06 20:13 50.06522 14.58890 10407 ft 330 kts 32°
2026-05-06 20:13 50.08740 14.60148 10601 ft 352 kts
2026-05-06 20:13 50.11168 14.59576 11090 ft 359 kts 334°
2026-05-06 20:14 50.13202 14.57400 11808 ft 355 kts 311°
2026-05-06 20:14 50.14609 14.54297 12627 ft 348 kts 292°
2026-05-06 20:14 50.15275 14.50769 13355 ft 344 kts 274°
2026-05-06 20:14 50.15452 14.47040 14055 ft 346 kts 270°
2026-05-06 20:15 50.15537 14.43268 14739 ft 349 kts 269°
2026-05-06 20:15 50.15598 14.39470 15414 ft 352 kts 269°
2026-05-06 20:15 50.15660 14.35638 15864 ft 355 kts 269°
2026-05-06 20:15 50.15722 14.31774 16455 ft 354 kts 268°
2026-05-06 20:16 50.15757 14.27930 16936 ft 356 kts 269°
2026-05-06 20:16 50.15864 14.24017 17392 ft 364 kts 272°
2026-05-06 20:16 50.16063 14.20094 18090 ft 363 kts 270°
2026-05-06 20:16 50.16168 14.16149 18640 ft 365 kts 269°
2026-05-06 20:17 50.16243 14.12170 19160 ft 369 kts 269°
2026-05-06 20:17 50.16312 14.08154 19689 ft 372 kts 269°
2026-05-06 20:17 50.16383 14.04107 20190 ft 375 kts 268°
2026-05-06 20:17 50.16461 14.00038 20670 ft 378 kts 268°
2026-05-06 20:18 50.16544 13.95924 21184 ft 380 kts 268°
2026-05-06 20:18 50.16629 13.91794 21679 ft 382 kts 268°
2026-05-06 20:18 50.16716 13.87631 22114 ft 386 kts 268°
2026-05-06 20:18 50.16804 13.83436 22557 ft 388 kts 268°
2026-05-06 20:19 50.16892 13.79217 23004 ft 390 kts 268°
2026-05-06 20:19 50.16979 13.74979 23425 ft 393 kts 267°
2026-05-06 20:19 50.17065 13.70709 23822 ft 396 kts 267°
2026-05-06 20:19 50.17150 13.66398 24213 ft 399 kts 267°
2026-05-06 20:20 50.17235 13.62062 24647 ft 400 kts 267°
2026-05-06 20:20 50.17318 13.57723 25079 ft 402 kts 267°
2026-05-06 20:20 50.17400 13.53347 25471 ft 404 kts 267°
2026-05-06 20:20 50.17480 13.48953 25852 ft 407 kts 267°
2026-05-06 20:21 50.17559 13.44532 26222 ft 409 kts 267°
2026-05-06 20:21 50.17637 13.40091 26585 ft 411 kts 267°
2026-05-06 20:21 50.17731 13.35625 26970 ft 412 kts 267°
2026-05-06 20:21 50.17814 13.31157 27388 ft 412 kts 266°
2026-05-06 20:22 50.17883 13.26706 27909 ft 409 kts 266°
2026-05-06 20:22 50.17949 13.22289 28416 ft 406 kts 266°
2026-05-06 20:22 50.18013 13.17895 28878 ft 405 kts 266°
2026-05-06 20:22 50.18076 13.13517 29372 ft 402 kts 266°
2026-05-06 20:23 50.18139 13.09175 29833 ft 400 kts 266°
2026-05-06 20:23 50.18201 13.04844 30222 ft 399 kts 265°
2026-05-06 20:23 50.18261 13.00517 30649 ft 397 kts 265°
2026-05-06 20:23 50.18320 12.96235 31094 ft 395 kts 265°
2026-05-06 20:24 50.18377 12.91969 31513 ft 392 kts 265°
2026-05-06 20:24 50.18433 12.87720 31803 ft 392 kts 265°
2026-05-06 20:24 50.18539 12.79216 31794 ft 389 kts 265°
2026-05-06 20:25 50.18595 12.70786 31805 ft 388 kts 264°
2026-05-06 20:25 50.18628 12.62377 31811 ft 387 kts 265°
2026-05-06 20:26 50.18726 12.53977 31810 ft 388 kts 265°
2026-05-06 20:26 50.18844 12.45563 31804 ft 388 kts 265°
2026-05-06 20:27 50.18957 12.37030 31815 ft 399 kts 265°
2026-05-06 20:27 50.19018 12.28253 31818 ft 410 kts 264°
2026-05-06 20:28 50.18977 12.19278 31817 ft 416 kts 264°
2026-05-06 20:28 50.18936 12.10249 31823 ft 416 kts 264°
2026-05-06 20:29 50.18897 12.01215 31819 ft 416 kts 264°
2026-05-06 20:29 50.18857 11.92257 31819 ft 415 kts 264°
2026-05-06 20:30 50.18805 11.78800 31832 ft 413 kts 265°
2026-05-06 20:31 50.18937 11.69843 31834 ft 413 kts 266°
2026-05-06 20:31 50.19088 11.60896 31833 ft 412 kts 265°
2026-05-06 20:32 50.19216 11.51962 31825 ft 411 kts 265°
2026-05-06 20:32 50.19326 11.43038 31826 ft 412 kts 265°
2026-05-06 20:33 50.19427 11.34093 31835 ft 413 kts 265°
2026-05-06 20:33 50.19522 11.25102 31836 ft 415 kts 265°
2026-05-06 20:34 50.19612 11.16069 31833 ft 418 kts 265°
2026-05-06 20:34 50.19695 11.06985 31836 ft 420 kts 265°
2026-05-06 20:35 50.19773 10.97832 31836 ft 423 kts 265°
2026-05-06 20:35 50.19453 10.88706 31849 ft 420 kts 257°
2026-05-06 20:36 50.18633 10.79670 31855 ft 423 kts 257°
2026-05-06 20:36 50.17803 10.70569 31840 ft 424 kts 257°
2026-05-06 20:37 50.17006 10.61443 31835 ft 425 kts 257°
2026-05-06 20:37 50.16216 10.52305 31835 ft 426 kts 257°
2026-05-06 20:38 50.15417 10.43156 31834 ft 426 kts 257°
2026-05-06 20:38 50.14606 10.33991 31852 ft 427 kts 257°
2026-05-06 20:39 50.14564 10.24647 31832 ft 439 kts 272°
2026-05-06 20:39 50.16062 10.15324 31830 ft 446 kts 280°
2026-05-06 20:40 50.17823 10.06052 31836 ft 447 kts 280°
2026-05-06 20:40 50.19562 9.96732 31834 ft 447 kts 280°
2026-05-06 20:41 50.21263 9.87376 31848 ft 448 kts 280°
2026-05-06 20:41 50.22936 9.78079 31829 ft 448 kts 279°
2026-05-06 20:42 50.24609 9.68707 31845 ft 448 kts 280°
2026-05-06 20:42 50.26277 9.59346 31852 ft 447 kts 279°
2026-05-06 20:43 50.27668 9.51498 31850 ft 447 kts 280°
2026-05-06 20:43 50.29318 9.42146 31855 ft 446 kts 280°
2026-05-06 20:44 50.30957 9.32807 31846 ft 446 kts 280°
2026-05-06 20:44 50.32587 9.23468 31852 ft 445 kts 280°
2026-05-06 20:45 50.34210 9.14138 31863 ft 444 kts 280°
2026-05-06 20:45 50.35973 9.04853 31869 ft 445 kts 282°
2026-05-06 20:46 50.37856 8.95611 31857 ft 446 kts 283°
2026-05-06 20:46 50.39701 8.86402 31858 ft 446 kts 282°
2026-05-06 20:47 50.41530 8.77105 31856 ft 446 kts 282°
2026-05-06 20:47 50.43352 8.67800 31859 ft 447 kts 282°
2026-05-06 20:48 50.44983 8.58414 31857 ft 444 kts 276°
2026-05-06 20:48 50.45931 8.48864 31867 ft 443 kts 274°
2026-05-06 20:49 50.46803 8.39274 31857 ft 444 kts 274°
2026-05-06 20:49 50.47717 8.29667 31866 ft 446 kts 274°
2026-05-06 20:50 50.48656 8.20033 31861 ft 447 kts 274°
2026-05-06 20:50 50.49596 8.10385 31861 ft 448 kts 274°
2026-05-06 20:51 50.50529 8.00704 31860 ft 448 kts 274°
2026-05-06 20:51 50.51453 7.91021 31865 ft 449 kts 274°
2026-05-06 20:52 50.52369 7.81322 31867 ft 449 kts 274°
2026-05-06 20:52 50.53277 7.71620 31874 ft 448 kts 274°
2026-05-06 20:53 50.54177 7.61923 31870 ft 448 kts 274°
2026-05-06 20:53 50.55069 7.52229 31883 ft 447 kts 274°
2026-05-06 20:54 50.55927 7.42566 31882 ft 445 kts 272°
2026-05-06 20:54 50.56066 7.32898 31834 ft 442 kts 266°
2026-05-06 20:54 50.56047 7.28035 31241 ft 445 kts 266°
2026-05-06 20:55 50.56057 7.23173 30574 ft 444 kts 267°
2026-05-06 20:55 50.56086 7.18312 29874 ft 444 kts 267°
2026-05-06 20:55 50.56083 7.13456 29124 ft 444 kts 265°
2026-05-06 20:55 50.55962 7.08618 28543 ft 441 kts 264°
2026-05-06 20:56 50.55814 7.03827 27981 ft 436 kts 265°
2026-05-06 20:56 50.55684 6.99083 27429 ft 432 kts 265°
2026-05-06 20:56 50.55569 6.94380 26894 ft 428 kts 265°
2026-05-06 20:56 50.55453 6.89728 26344 ft 424 kts 265°
2026-05-06 20:57 50.55333 6.85125 25821 ft 420 kts 265°
2026-05-06 20:57 50.55212 6.80553 25281 ft 416 kts 265°
2026-05-06 20:57 50.55090 6.76038 24756 ft 412 kts 265°
2026-05-06 20:57 50.54971 6.71553 24231 ft 409 kts 266°
2026-05-06 20:58 50.55077 6.67101 23697 ft 407 kts 276°
2026-05-06 20:58 50.55586 6.62738 23198 ft 404 kts 279°
2026-05-06 20:58 50.56145 6.58420 22675 ft 401 kts 279°
2026-05-06 20:58 50.56696 6.54142 22160 ft 398 kts 279°
2026-05-06 20:59 50.57231 6.49881 21657 ft 395 kts 279°
2026-05-06 20:59 50.57749 6.45663 21138 ft 392 kts 279°
2026-05-06 20:59 50.58258 6.41465 20640 ft 389 kts 279°
2026-05-06 20:59 50.58759 6.37294 20140 ft 386 kts 279°
2026-05-06 21:00 50.59254 6.33160 19638 ft 383 kts 279°
2026-05-06 21:00 50.59744 6.29050 19137 ft 380 kts 279°
2026-05-06 21:00 50.60228 6.24972 18640 ft 378 kts 279°
2026-05-06 21:00 50.60708 6.20919 18147 ft 375 kts 279°
2026-05-06 21:01 50.61182 6.16891 17653 ft 372 kts 279°
2026-05-06 21:01 50.61651 6.12896 17175 ft 370 kts 279°
2026-05-06 21:01 50.62116 6.08931 16693 ft 367 kts 279°
2026-05-06 21:01 50.62576 6.04988 16216 ft 365 kts 279°
2026-05-06 21:02 50.63031 6.01077 15738 ft 362 kts 279°
2026-05-06 21:02 50.63482 5.97193 15265 ft 359 kts 279°
2026-05-06 21:02 50.63930 5.93339 14799 ft 357 kts 280°
2026-05-06 21:02 50.64371 5.89514 14333 ft 354 kts 280°
2026-05-06 21:03 50.64800 5.85763 13876 ft 351 kts 279°
2026-05-06 21:03 50.65064 5.81894 13366 ft 350 kts 273°
2026-05-06 21:03 50.65154 5.78072 12895 ft 348 kts 272°
2026-05-06 21:03 50.65210 5.74280 12424 ft 345 kts 271°
2026-05-06 21:04 50.65263 5.70566 11970 ft 343 kts 272°
2026-05-06 21:04 50.65322 5.66841 11519 ft 340 kts 272°
2026-05-06 21:04 50.65388 5.63069 11065 ft 338 kts 272°
2026-05-06 21:04 50.65458 5.59397 10811 ft 329 kts 272°
2026-05-06 21:05 50.65525 5.55900 10664 ft 319 kts 272°
2026-05-06 21:05 50.65592 5.52468 10524 ft 309 kts 272°
2026-05-06 21:05 50.65657 5.49141 10390 ft 299 kts 272°
2026-05-06 21:05 50.65720 5.45920 10264 ft 290 kts 273°
2026-05-06 21:06 50.65780 5.42794 10143 ft 281 kts 273°
2026-05-06 21:06 50.65838 5.39768 10028 ft 273 kts 273°
2026-05-06 21:06 50.65894 5.36826 9914 ft 264 kts 273°
2026-05-06 21:06 50.65948 5.33946 9667 ft 262 kts 273°
2026-05-06 21:07 50.66001 5.31084 9409 ft 260 kts 273°
2026-05-06 21:07 50.66052 5.28266 9147 ft 259 kts 273°
2026-05-06 21:07 50.66104 5.25444 8887 ft 257 kts 273°
2026-05-06 21:07 50.66152 5.22632 8620 ft 256 kts 273°
2026-05-06 21:08 50.66201 5.19833 8353 ft 255 kts 273°
2026-05-06 21:08 50.66248 5.17048 8087 ft 254 kts 273°
2026-05-06 21:08 50.66026 5.14307 7799 ft 257 kts 249°
2026-05-06 21:08 50.65269 5.11738 7591 ft 262 kts 247°
2026-05-06 21:09 50.64499 5.09096 7307 ft 268 kts 247°
2026-05-06 21:09 50.63718 5.06390 7018 ft 274 kts 247°
2026-05-06 21:09 50.62958 5.03646 6732 ft 272 kts 250°
2026-05-06 21:09 50.62231 5.00908 6472 ft 270 kts 249°
2026-05-06 21:10 50.61476 4.98212 6216 ft 268 kts 248°
2026-05-06 21:10 50.60700 4.95549 5956 ft 266 kts 247°
2026-05-06 21:10 50.59925 4.92916 5702 ft 264 kts 247°
2026-05-06 21:10 50.59152 4.90300 5448 ft 262 kts 247°
2026-05-06 21:11 50.58397 4.87746 5200 ft 260 kts 247°
2026-05-06 21:11 50.57640 4.85171 4951 ft 258 kts 247°
2026-05-06 21:11 50.56889 4.82613 4708 ft 257 kts 247°
2026-05-06 21:11 50.56144 4.80077 4465 ft 255 kts 247°
2026-05-06 21:12 50.55400 4.77551 4229 ft 254 kts 247°
2026-05-06 21:12 50.54662 4.75034 3985 ft 253 kts 247°
2026-05-06 21:12 50.53931 4.72536 3788 ft 248 kts 247°
2026-05-06 21:12 50.53229 4.70139 3666 ft 237 kts 247°
2026-05-06 21:13 50.52550 4.67822 3403 ft 231 kts 247°
2026-05-06 21:13 50.51886 4.65548 3107 ft 227 kts 247°
2026-05-06 21:13 50.51231 4.63305 2813 ft 225 kts 246°
2026-05-06 21:13 50.50586 4.61091 2525 ft 220 kts 245°
2026-05-06 21:14 50.49956 4.58931 2238 ft 213 kts 244°
2026-05-06 21:14 50.49351 4.56877 1973 ft 201 kts 243°
2026-05-06 21:14 50.48775 4.54941 1637 ft 193 kts 245°
2026-05-06 21:14 50.48229 4.53076 1449 ft 184 kts 246°
2026-05-06 21:15 50.47708 4.51247 1202 ft 182 kts 247°
2026-05-06 21:15 50.47210 4.49516 992 ft 165 kts 246°
2026-05-06 21:15 50.46753 4.47944 751 ft 153 kts 246°
2026-05-06 21:15 50.46328 4.46462 597 ft 143 kts 246°
2026-05-06 21:16 50.45981 4.45272 589 ft 90 kts 245°
2026-05-06 21:16 50.45787 4.44603 598 ft 58 kts 245°
2026-05-06 21:16 50.45649 4.44131 593 ft 28 kts 245°
2026-05-06 21:16 50.45657 4.43984 593 ft 14 kts 340°
2026-05-06 21:17 50.45730 4.44069 593 ft 14 kts 52°
2026-05-06 21:17 50.45787 4.44185 596 ft 13 kts 52°
2026-05-06 21:17 50.45843 4.44297 598 ft 13 kts 52°
2026-05-06 21:17 50.45897 4.44405 598 ft 12 kts 52°
2026-05-06 21:18 50.45942 4.44519 599 ft 12 kts 64°
2026-05-06 21:18 50.45983 4.44659 597 ft 17 kts 65°
2026-05-06 21:18 50.46037 4.44842 596 ft 20 kts 65°
2026-05-06 21:18 50.46097 4.45048 595 ft 22 kts 65°
2026-05-06 21:19 50.46160 4.45268 598 ft 22 kts 65°
2026-05-06 21:19 50.46226 4.45494 598 ft 23 kts 65°
2026-05-06 21:19 50.46294 4.45728 596 ft 25 kts 65°
2026-05-06 21:19 50.46366 4.45973 595 ft 25 kts 65°
2026-05-06 21:20 50.46445 4.46244 590 ft 27 kts 65°
2026-05-06 21:20 50.46490 4.46397 588 ft 20 kts 65°
2026-05-06 21:20 50.46554 4.46557 590 ft 11 kts 14°
2026-05-06 21:20 50.46637 4.46542 588 ft 14 kts 24°
2026-05-06 21:21 50.46686 4.46675 587 ft 7 kts 65°
2026-05-06 21:21 50.46696 4.46708 587 ft 3 kts 58°
2026-05-06 21:21 50.46736 4.46706 585 ft 7 kts 336°
2026-05-06 21:21 50.46753 4.46694 585 ft 0 kts 334°